Location: Newark
(51.0500°N, 12.4500°E)
Time: 00:55:31
(UTC+00:00)

Vanguard 1 - Pass Details

Date: 19 February 2020
Orbit: 649 x 3834 km, 34.2° (Epoch: 01 April)

Event Time Altitude Azimuth Distance (km) Brightness Sun altitude
Rises 12:04:21 0° 262° (W) 6,522 14.5 27.0°
Reaches altitude 10° 12:10:12 10° 252° (WSW) 4,913 14.1 26.8°
Maximum altitude 12:19:37 25° 205° (SSW) 2,806 15.0 26.4°
Drops below altitude 10° 12:25:45 10° 152° (SSE) 3,088 13.4 26.2°
Sets 12:28:28 0° 139° (SE) 3,735 13.5 26.0°
